W2CS Weather Reports


time (UTC)temp
C
wind
direction
speed
KPH
gust
KPH
rain 1hr
cm
rain 24hr
cm
rain mn
cm
humidity
%
barometer
mb
20260505052040 7 0 0.0 1.6 0.00 0.00 0.00 92 1012.3
20260505051547 7 0 0.0 1.6 0.00 0.00 0.00 92 1012.3
20260505051038 7 0 0.0 1.6 0.00 0.00 0.00 92 1012.5
20260505050538 7 0 0.0 3.2 0.00 0.00 0.00 92 1012.5
20260505050125 7 0 0.0 3.2 0.00 0.00 0.00 92 1012.6
20260505041601 7 0 0.0 1.6 0.00 0.00 0.00 92 1012.8
20260505041039 7 0 0.0 1.6 0.00 0.00 0.00 92 1012.7
20260505040540 7 0 0.0 0.0 0.00 0.00 0.00 91 1012.7
20260505040059 7 0 0.0 3.2 0.00 0.00 0.00 91 1012.7
20260505035540 7 0 0.0 3.2 0.00 0.00 0.00 91 1012.8
20260505035039 7 0 0.0 3.2 0.00 0.00 0.00 91 1012.8
20260505034548 7 0 0.0 1.6 0.00 0.00 0.00 91 1012.8
20260505034039 7 0 0.0 1.6 0.00 0.00 0.00 91 1012.8
20260505033539 7 0 0.0 1.6 0.00 0.00 0.00 91 1012.8
20260505033050 7 0 0.0 1.6 0.00 0.00 0.00 91 1012.8
20260505032539 7 0 0.0 0.0 0.00 0.00 0.00 90 1012.8
20260505032038 7 0 0.0 0.0 0.00 0.00 0.00 90 1012.9
20260505031550 7 0 0.0 0.0 0.00 0.00 0.00 90 1013.0
20260505031038 8 0 0.0 0.0 0.00 0.00 0.00 90 1013.0
20260505030539 8 0 0.0 0.0 0.00 0.00 0.00 90 1013.1
20260505030052 8 0 0.0 0.0 0.00 0.00 0.00 89 1013.0
20260505025536 8 0 0.0 3.2 0.00 0.00 0.00 89 1012.9
20260505025038 8 0 0.0 3.2 0.00 0.00 0.00 89 1013.0
20260505024550 8 0 0.0 1.6 0.00 0.00 0.00 89 1012.9
20260505024039 8 0 0.0 1.6 0.00 0.00 0.00 88 1012.9
20260505023541 8 0 0.0 3.2 0.00 0.00 0.00 88 1013.0
20260505023054 8 0 0.0 3.2 0.00 0.00 0.00 88 1012.9
20260505022539 9 0 0.0 0.0 0.00 0.00 0.00 88 1013.0
20260505022039 9 0 0.0 0.0 0.00 0.00 0.00 87 1013.0
20260505021550 9 0 0.0 1.6 0.00 0.00 0.00 87 1013.0
20260505021038 9 0 0.0 3.2 0.00 0.00 0.00 87 1013.0
20260505020539 10 0 0.0 4.8 0.00 0.00 0.00 87 1013.0
20260505020050 10 56 0.0 4.8 0.00 0.00 0.00 87 1013.0
20260505015539 10 56 0.0 4.8 0.00 0.00 0.00 87 1013.0
20260505015039 10 17 0.0 3.2 0.00 0.00 0.00 87 1012.9
20260505014604 10 20 1.6 4.8 0.00 0.00 0.00 87 1012.9
20260505014042 10 322 1.6 6.4 0.00 0.00 0.00 87 1012.8
20260505013538 10 343 1.6 6.4 0.00 0.00 0.00 87 1012.7
20260505013051 10 348 1.6 4.8 0.00 0.00 0.00 87 1012.7
20260505012539 10 333 1.6 4.8 0.00 0.00 0.00 86 1012.5
20260505012039 10 354 1.6 4.8 0.00 0.00 0.00 86 1012.4
20260505011549 10 295 1.6 4.8 0.00 0.00 0.00 86 1012.4
20260505011039 10 220 1.6 6.4 0.00 0.00 0.00 86 1012.3
20260505010539 10 8 1.6 6.4 0.00 0.00 0.00 86 1012.2
20260505010049 10 344 1.6 6.4 0.00 0.00 0.00 85 1012.1
20260505005539 10 110 1.6 4.8 0.00 0.00 0.00 85 1012.1
20260505005039 10 181 1.6 4.8 0.00 0.00 0.00 85 1011.9
20260505004550 10 359 1.6 6.4 0.00 0.00 0.00 85 1011.9
20260505004038 10 360 1.6 6.4 0.00 0.00 0.00 84 1011.8
20260505003535 10 359 1.6 8.0 0.00 0.00 0.00 84 1011.6
20260505003054 10 10 1.6 8.0 0.00 0.00 0.00 84 1011.5
20260505002542 10 29 1.6 8.0 0.00 0.00 0.00 84 1011.5
20260505002039 10 6 1.6 4.8 0.00 0.00 0.00 83 1011.3
20260505001602 10 313 1.6 4.8 0.00 0.00 0.00 83 1011.4
20260505001040 10 0 1.6 4.8 0.00 0.00 0.00 83 1011.3
20260505000539 10 70 1.6 4.8 0.00 0.00 0.00 82 1011.4
20260505000113 10 356 1.6 6.4 0.00 0.00 0.00 82 1011.1
20260504235539 11 355 1.6 6.4 0.00 0.00 0.00 81 1011.2
20260504235040 11 337 1.6 6.4 0.00 0.00 0.00 81 1011.1
20260504234605 11 12 1.6 6.4 0.00 0.00 0.00 80 1011.2
20260504234039 11 179 1.6 4.8 0.00 0.00 0.00 80 1011.1
20260504233536 11 338 1.6 4.8 0.00 0.00 0.00 80 1011.1
20260504233050 11 335 1.6 6.4 0.00 0.00 0.00 80 1011.0
20260504232536 11 6 1.6 6.4 0.00 0.00 0.00 79 1010.9
20260504232038 11 8 1.6 8.0 0.00 0.00 0.00 79 1010.9
20260504231553 11 16 1.6 8.0 0.00 0.00 0.00 80 1010.8
20260504231038 11 342 1.6 6.4 0.00 0.00 0.00 79 1010.9
20260504230539 11 66 1.6 6.4 0.00 0.00 0.00 79 1010.9
20260504230053 11 39 1.6 8.0 0.00 0.00 0.00 78 1010.9
20260504225538 11 30 1.6 8.0 0.00 0.00 0.00 78 1010.9
20260504225040 12 3 3.2 8.0 0.00 0.00 0.00 77 1010.8
20260504224605 12 8 3.2 8.0 0.00 0.00 0.00 77 1010.9
20260504224039 12 1 1.6 9.7 0.00 0.00 0.00 76 1010.8
20260504223541 12 188 3.2 9.7 0.00 0.00 0.00 75 1010.8
20260504223047 12 301 1.6 6.4 0.00 0.00 0.00 75 1010.9
20260504222539 12 345 1.6 6.4 0.00 0.00 0.00 74 1010.8
20260504222038 12 4 3.2 6.4 0.00 0.00 0.00 73 1010.8
20260504221547 13 32 1.6 6.4 0.00 0.00 0.00 73 1010.7
20260504221039 13 345 1.6 8.0 0.00 0.00 0.00 72 1010.8
20260504220542 13 333 1.6 8.0 0.00 0.00 0.00 71 1010.7
20260504220045 13 224 1.6 8.0 0.00 0.00 0.00 70 1010.6
20260504215539 13 154 1.6 6.4 0.00 0.00 0.00 70 1010.7
20260504215038 13 24 3.2 9.7 0.00 0.00 0.00 70 1010.7
20260504214548 14 4 1.6 9.7 0.00 0.00 0.00 68 1010.8
20260504214038 14 12 1.6 9.7 0.00 0.00 0.00 67 1010.9
20260504213539 14 11 1.6 6.4 0.00 0.00 0.00 69 1010.8
20260504213109 14 13 1.6 9.7 0.00 0.00 0.00 69 1010.8
20260504212539 14 10 3.2 12.9 0.00 0.00 0.00 69 1010.8
20260504212042 14 285 1.6 12.9 0.00 0.00 0.00 68 1010.8
20260504211549 15 333 1.6 9.7 0.00 0.00 0.00 68 1010.9
20260504211039 15 9 3.2 6.4 0.00 0.00 0.00 66 1010.9
20260504210541 15 357 3.2 6.4 0.00 0.00 0.00 66 1010.8
20260504210051 15 14 3.2 9.7 0.00 0.00 0.00 66 1010.9
20260504205539 15 50 3.2 9.7 0.00 0.00 0.00 66 1010.8
20260504205041 15 16 1.6 9.7 0.00 0.00 0.00 64 1010.7
20260504204553 15 346 1.6 8.0 0.00 0.00 0.00 65 1010.6
20260504204038 15 14 1.6 8.0 0.00 0.00 0.00 65 1010.6
20260504203539 15 7 1.6 8.0 0.00 0.00 0.00 65 1010.4
20260504203117 15 10 3.2 8.0 0.00 0.00 0.00 64 1010.5
20260504202539 15 264 3.2 6.4 0.00 0.00 0.00 64 1010.4
20260504202038 16 337 3.2 14.5 0.00 0.00 0.00 63 1010.4
20260504201552 16 345 3.2 14.5 0.00 0.00 0.00 63 1010.6
20260504201039 16 353 3.2 11.3 0.00 0.00 0.00 63 1010.5
20260504200538 16 345 3.2 11.3 0.00 0.00 0.00 61 1010.6
20260504200051 16 29 1.6 9.7 0.00 0.00 0.00 61 1010.6
20260504195539 17 352 1.6 8.0 0.00 0.00 0.00 62 1010.5
20260504195043 17 12 1.6 9.7 0.00 0.00 0.00 59 1010.5
20260504194559 17 55 1.6 9.7 0.00 0.00 0.00 60 1010.4
20260504194041 17 351 3.2 12.9 0.00 0.00 0.00 57 1010.6
20260504193540 17 29 3.2 12.9 0.00 0.00 0.00 55 1010.7
20260504193052 17 357 3.2 12.9 0.00 0.00 0.00 54 1010.7
20260504192538 17 4 3.2 9.7 0.00 0.00 0.00 55 1010.8
20260504192038 17 1 3.2 12.9 0.00 0.00 0.00 55 1010.6
20260504191547 17 10 3.2 12.9 0.00 0.00 0.00 54 1010.7
20260504191039 17 3 4.8 12.9 0.00 0.00 0.00 56 1010.8
20260504190541 18 337 3.2 11.3 0.00 0.00 0.00 55 1010.9
20260504190105 17 324 1.6 16.1 0.00 0.00 0.00 57 1010.8
20260504185539 17 6 3.2 16.1 0.00 0.00 0.00 57 1010.8
20260504185040 18 347 3.2 16.1 0.00 0.00 0.00 56 1010.8
20260504184559 18 353 3.2 8.0 0.00 0.00 0.00 58 1010.9
20260504184039 18 332 3.2 8.0 0.00 0.00 0.00 57 1011.1
20260504183542 18 16 3.2 8.0 0.00 0.00 0.00 57 1011.0
20260504183048 18 36 3.2 6.4 0.00 0.00 0.00 57 1011.0
20260504182542 18 338 1.6 6.4 0.00 0.00 0.00 59 1011.1
20260504182039 18 14 3.2 6.4 0.00 0.00 0.00 61 1011.0
20260504181549 18 359 3.2 12.9 0.00 0.00 0.00 60 1010.9
20260504181039 18 30 3.2 12.9 0.00 0.00 0.00 57 1010.9
20260504180541 18 8 3.2 12.9 0.00 0.00 0.00 59 1011.0
20260504180051 18 335 3.2 8.0 0.00 0.00 0.00 59 1011.0
20260504175538 18 31 1.6 8.0 0.00 0.00 0.00 59 1010.8
20260504175040 18 32 3.2 8.0 0.00 0.00 0.00 59 1010.8
20260504174601 18 26 1.6 6.4 0.00 0.00 0.00 59 1010.9
20260504174039 18 26 3.2 6.4 0.00 0.00 0.00 61 1010.9
20260504173539 18 14 3.2 6.4 0.00 0.00 0.00 58 1010.9
20260504173056 18 348 3.2 11.3 0.00 0.00 0.00 58 1010.9
20260504172539 18 354 3.2 11.3 0.00 0.00 0.00 59 1011.0
20260504172041 18 345 3.2 8.0 0.00 0.00 0.00 61 1011.0
20260504171551 18 14 3.2 6.4 0.00 0.00 0.00 60 1011.0
20260504171039 18 20 3.2 6.4 0.00 0.00 0.00 64 1011.0
20260504170539 18 359 3.2 6.4 0.00 0.00 0.00 60 1011.1
20260504151038 18 11 1.6 4.8 0.00 0.00 0.00 59 1011.8
20260504150536 18 355 1.6 11.3 0.00 0.00 0.00 57 1011.9
20260504141038 17 103 1.6 6.4 0.00 0.00 0.00 61 1012.1
20260504140536 17 1 1.6 6.4 0.00 0.00 0.00 61 1012.1
20260504140106 17 359 1.6 6.4 0.00 0.00 0.00 60 1012.2
20260504130539 15 0 0.0 6.4 0.00 0.00 0.00 64 1012.3
20260504110539 6 0 0.0 1.6 0.00 0.00 0.00 89 1012.4
20260504110116 6 0 0.0 1.6 0.00 0.00 0.00 90 1012.3
20260504100538 5 0 0.0 0.0 0.00 0.00 0.00 88 1012.2
20260504090117 5 0 0.0 0.0 0.00 0.00 0.00 88 1011.7
20260504081548 5 0 0.0 0.0 0.00 0.00 0.00 88 1011.7
20260504081039 5 0 0.0 0.0 0.00 0.00 0.00 89 1011.7
20260504080541 5 0 0.0 0.0 0.00 0.00 0.00 89 1011.8